QPF
0.00 0.00 0.00 0.00 0.00 0.00 0.00 0.00 0.00 0.00 0.00 0.00 0.00 0.01 0.02 0.04 0.06 0.05 0.02 0.01 0.00 0.00 0.00 0.00 0.00 0.00 0.00 0.00 0.00 0.00 0.00 0.00 0.00 0.00 0.00 0.00 0.00 0.00 0.00 0.00 0.00 0.00 0.00 0.00 0.00 0.00 0.00 0.00 0.00
0.00 0.00 0.00 0.00 0.00 0.00 0.00 0.00 0.00 0.00 0.00 0.00 0.00 0.02 0.04 0.06 0.05 0.04 0.02 0.01 0.00 0.00 0.00 0.00 0.00 0.00 0.00 0.00 0.00 0.00 0.00 0.00 0.00 0.00 0.00 0.00 0.00 0.00 0.00 0.00 0.00 0.00 0.00 0.00 0.00 0.00 0.00 0.00 0.00
0.00 0.00 0.00 0.00 0.00 0.00 0.00 0.00 0.00 0.00 0.00 0.00 0.01 0.03 0.08 0.08 0.06 0.05 0.04 0.02 0.00 0.00 0.00 0.00 0.00 0.00 0.00 0.00 0.00 0.00 0.00 0.00 0.00 0.00 0.00 0.00 0.00 0.00 0.00 0.00 0.00 0.00 0.00 0.00 0.00 0.00 0.00 0.00 0.00
0.00 0.00 0.00 0.00 0.00 0.00 0.00 0.00 0.00 0.00 0.00 0.00 0.01 0.03 0.04 0.05 0.05 0.06 0.04 0.02 0.00 0.00 0.00 0.00 0.00 0.00 0.00 0.00 0.00 0.00 0.00 0.00 0.00 0.00 0.00 0.00 0.00 0.00 0.00 0.00 0.00 0.00 0.00 0.00 0.00 0.00 0.00 0.00 0.00
0.00 0.00 0.00 0.00 0.00 0.00 0.00 0.00 0.00 0.00 0.00 0.00 0.01 0.03 0.04 0.03 0.05 0.05 0.05 0.03 0.02 0.01 0.00 0.00 0.00 0.00 0.00 0.00 0.00 0.00 0.00 0.00 0.00 0.00 0.00 0.00 0.00 0.00 0.00 0.00 0.00 0.00 0.00 0.00 0.00 0.00 0.00 0.00 0.00
0.00 0.00 0.00 0.00 0.00 0.00 0.00 0.00 0.00 0.00 0.00 0.00 0.00 0.01 0.04 0.05 0.05 0.06 0.08 0.06 0.04 0.03 0.01 0.00 0.00 0.00 0.00 0.00 0.00 0.00 0.00 0.00 0.00 0.00 0.00 0.00 0.00 0.00 0.00 0.00 0.00 0.00 0.00 0.00 0.00 0.00 0.00 0.00 0.00
0.00 0.00 0.00 0.00 0.00 0.00 0.00 0.00 0.00 0.00 0.00 0.00 0.00 0.01 0.07 0.08 0.08 0.07 0.08 0.07 0.03 0.04 0.01 0.00 0.00 0.00 0.00 0.00 0.00 0.00 0.00 0.01 0.00 0.00 0.00 0.00 0.00 0.00 0.01 0.01 0.01 0.00 0.00 0.00 0.00 0.00 0.00 0.00 0.00
0.00 0.00 0.00 0.00 0.00 0.00 0.00 0.00 0.00 0.00 0.00 0.00 0.00 0.01 0.03 0.06 0.12 0.12 0.08 0.08 0.05 0.03 0.02 0.01 0.01 0.01 0.00 0.01 0.01 0.01 0.01 0.01 0.01 0.00 0.00 0.00 0.00 0.01 0.01 0.01 0.01 0.00 0.00 0.00 0.00 0.00 0.00 0.00 0.00
0.00 0.00 0.00 0.00 0.00 0.00 0.00 0.00 0.00 0.00 0.00 0.00 0.00 0.00 0.02 0.05 0.12 0.19 0.13 0.10 0.07 0.05 0.04 0.03 0.01 0.02 0.02 0.02 0.02 0.02 0.01 0.01 0.01 0.01 0.01 0.01 0.00 0.01 0.01 0.01 0.01 0.01 0.01 0.01 0.00 0.00 0.00 0.00 0.00
0.00 0.00 0.00 0.00 0.00 0.00 0.00 0.00 0.00 0.00 0.00 0.00 0.00 0.00 0.01 0.04 0.09 0.17 0.14 0.09 0.06 0.04 0.03 0.03 0.02 0.02 0.02 0.02 0.02 0.02 0.01 0.01 0.01 0.01 0.01 0.00 0.00 0.00 0.00 0.00 0.01 0.01 0.01 0.01 0.01 0.01 0.00 0.00 0.00
0.00 0.00 0.00 0.00 0.00 0.00 0.00 0.00 0.00 0.00 0.00 0.00 0.00 0.00 0.01 0.03 0.06 0.10 0.11 0.08 0.08 0.06 0.03 0.03 0.03 0.03 0.02 0.02 0.02 0.02 0.02 0.02 0.02 0.02 0.01 0.01 0.01 0.00 0.00 0.00 0.00 0.01 0.01 0.01 0.00 0.00 0.00 0.00 0.00
0.00 0.00 0.00 0.00 0.00 0.00 0.00 0.00 0.00 0.00 0.00 0.00 0.00 0.01 0.02 0.04 0.06 0.11 0.15 0.11 0.11 0.09 0.06 0.04 0.05 0.06 0.05 0.04 0.03 0.02 0.02 0.02 0.01 0.01 0.01 0.01 0.01 0.02 0.03 0.03 0.02 0.01 0.01 0.01 0.00 0.00 0.01 0.01 0.01
0.00 0.00 0.00 0.00 0.00 0.00 0.00 0.00 0.00 0.00 0.00 0.00 0.01 0.01 0.02 0.06 0.08 0.10 0.11 0.10 0.09 0.10 0.08 0.06 0.07 0.06 0.06 0.06 0.04 0.03 0.02 0.02 0.02 0.02 0.03 0.03 0.03 0.03 0.03 0.03 0.03 0.03 0.03 0.02 0.02 0.01 0.01 0.02 0.02
0.00 0.00 0.00 0.00 0.00 0.00 0.00 0.00 0.00 0.00 0.01 0.01 0.01 0.02 0.03 0.06 0.13 0.15 0.15 0.14 0.13 0.13 0.09 0.06 0.06 0.05 0.06 0.07 0.06 0.06 0.05 0.05 0.04 0.04 0.04 0.03 0.03 0.03 0.03 0.03 0.05 0.04 0.05 0.05 0.05 0.04 0.03 0.03 0.03
0.00 0.00 0.00 0.00 0.00 0.00 0.00 0.00 0.00 0.01 0.01 0.02 0.02 0.03 0.03 0.05 0.08 0.10 0.14 0.20 0.22 0.20 0.13 0.08 0.07 0.09 0.13 0.13 0.10 0.07 0.07 0.06 0.05 0.05 0.05 0.03 0.03 0.03 0.04 0.06 0.06 0.05 0.06 0.07 0.06 0.05 0.06 0.05 0.04
0.00 0.00 0.00 0.00 0.00 0.00 0.00 0.00 0.01 0.02 0.02 0.03 0.03 0.03 0.03 0.04 0.05 0.06 0.08 0.15 0.21 0.27 0.18 0.14 0.11 0.13 0.16 0.16 0.14 0.10 0.10 0.10 0.09 0.09 0.09 0.09 0.09 0.09 0.09 0.09 0.09 0.09 0.08 0.08 0.08 0.08 0.07 0.06 0.05
0.00 0.00 0.00 0.00 0.00 0.00 0.00 0.00 0.01 0.02 0.03 0.03 0.03 0.03 0.03 0.03 0.03 0.05 0.07 0.10 0.14 0.19 0.19 0.19 0.18 0.20 0.24 0.25 0.24 0.21 0.20 0.20 0.20 0.19 0.19 0.17 0.16 0.17 0.16 0.16 0.14 0.13 0.12 0.11 0.11 0.10 0.09 0.08 0.07
0.00 0.00 0.00 0.00 0.00 0.00 0.00 0.01 0.02 0.02 0.03 0.03 0.03 0.03 0.04 0.04 0.05 0.07 0.08 0.09 0.10 0.15 0.22 0.28 0.27 0.26 0.30 0.33 0.33 0.30 0.29 0.29 0.30 0.30 0.28 0.24 0.25 0.24 0.22 0.19 0.17 0.15 0.15 0.13 0.13 0.13 0.11 0.09 0.08
0.00 0.00 0.00 0.00 0.00 0.00 0.01 0.02 0.03 0.03 0.04 0.03 0.04 0.04 0.05 0.05 0.06 0.10 0.12 0.12 0.13 0.16 0.27 0.32 0.33 0.31 0.36 0.41 0.40 0.40 0.39 0.37 0.34 0.35 0.35 0.34 0.33 0.31 0.28 0.25 0.21 0.19 0.16 0.13 0.13 0.12 0.10 0.08 0.07
0.00 0.00 0.00 0.00 0.01 0.01 0.02 0.03 0.04 0.04 0.05 0.05 0.05 0.05 0.05 0.04 0.04 0.07 0.09 0.12 0.20 0.20 0.21 0.22 0.32 0.40 0.46 0.54 0.56 0.45 0.41 0.40 0.40 0.43 0.44 0.42 0.40 0.36 0.34 0.30 0.25 0.20 0.18 0.15 0.13 0.11 0.09 0.08 0.07
0.00 0.00 0.00 0.01 0.02 0.03 0.03 0.05 0.06 0.06 0.07 0.07 0.06 0.06 0.06 0.05 0.04 0.05 0.06 0.10 0.17 0.18 0.16 0.19 0.31 0.48 0.52 0.62 0.71 0.65 0.51 0.43 0.40 0.39 0.38 0.37 0.35 0.34 0.30 0.25 0.20 0.17 0.16 0.12 0.10 0.10 0.10 0.10 0.09
0.00 0.00 0.00 0.00 0.01 0.03 0.03 0.04 0.07 0.07 0.06 0.06 0.06 0.06 0.06 0.05 0.04 0.05 0.06 0.08 0.13 0.14 0.15 0.19 0.31 0.44 0.53 0.61 0.68 0.70 0.62 0.49 0.39 0.33 0.30 0.26 0.23 0.22 0.19 0.17 0.16 0.16 0.16 0.13 0.11 0.11 0.12 0.11 0.09
0.00 0.00 0.00 0.00 0.00 0.01 0.02 0.03 0.05 0.06 0.04 0.05 0.05 0.05 0.05 0.04 0.04 0.04 0.05 0.07 0.11 0.14 0.15 0.17 0.24 0.32 0.38 0.42 0.52 0.58 0.57 0.50 0.40 0.29 0.22 0.20 0.20 0.19 0.17 0.15 0.15 0.14 0.12 0.10 0.09 0.08 0.08 0.08 0.08
0.00 0.00 0.01 0.01 0.01 0.01 0.01 0.02 0.04 0.06 0.05 0.04 0.05 0.05 0.05 0.04 0.05 0.05 0.05 0.09 0.14 0.16 0.16 0.15 0.17 0.25 0.29 0.29 0.36 0.49 0.48 0.43 0.38 0.30 0.22 0.18 0.16 0.16 0.16 0.14 0.12 0.11 0.09 0.08 0.07 0.07 0.06 0.06 0.05
0.00 0.00 0.01 0.02 0.01 0.01 0.02 0.03 0.03 0.06 0.06 0.05 0.05 0.06 0.05 0.05 0.05 0.05 0.06 0.10 0.16 0.16 0.17 0.19 0.20 0.24 0.27 0.31 0.33 0.39 0.41 0.36 0.32 0.28 0.25 0.20 0.16 0.14 0.13 0.10 0.08 0.07 0.07 0.06 0.05 0.05 0.05 0.05 0.04
0.00 0.00 0.00 0.01 0.01 0.01 0.03 0.04 0.04 0.06 0.06 0.05 0.05 0.04 0.04 0.04 0.05 0.05 0.06 0.06 0.09 0.12 0.13 0.15 0.19 0.22 0.24 0.26 0.30 0.31 0.28 0.25 0.23 0.22 0.22 0.19 0.15 0.12 0.10 0.07 0.06 0.05 0.04 0.04 0.03 0.03 0.02 0.03 0.03
0.00 0.01 0.00 0.00 0.00 0.01 0.03 0.03 0.04 0.08 0.09 0.06 0.04 0.03 0.03 0.04 0.04 0.04 0.05 0.06 0.06 0.09 0.13 0.13 0.13 0.16 0.20 0.20 0.18 0.18 0.16 0.14 0.12 0.11 0.10 0.07 0.06 0.05 0.04 0.04 0.03 0.03 0.02 0.02 0.02 0.02 0.01 0.01 0.01
0.00 0.00 0.00 0.00 0.00 0.01 0.02 0.04 0.04 0.06 0.08 0.06 0.06 0.05 0.04 0.03 0.04 0.04 0.04 0.05 0.06 0.07 0.14 0.16 0.14 0.12 0.15 0.19 0.17 0.12 0.10 0.10 0.10 0.08 0.07 0.06 0.05 0.04 0.03 0.03 0.02 0.02 0.01 0.01 0.01 0.01 0.01 0.01 0.01
0.00 0.00 0.00 0.00 0.00 0.01 0.01 0.03 0.03 0.06 0.08 0.07 0.07 0.09 0.09 0.06 0.05 0.05 0.03 0.04 0.05 0.05 0.08 0.08 0.08 0.09 0.09 0.09 0.12 0.12 0.09 0.08 0.07 0.07 0.06 0.06 0.06 0.05 0.04 0.03 0.03 0.02 0.01 0.01 0.00 0.00 0.00 0.00 0.00
0.00 0.00 0.01 0.01 0.01 0.01 0.01 0.02 0.02 0.05 0.06 0.06 0.08 0.11 0.14 0.11 0.06 0.04 0.03 0.03 0.03 0.04 0.05 0.06 0.06 0.05 0.05 0.05 0.06 0.07 0.05 0.05 0.06 0.06 0.06 0.04 0.03 0.03 0.03 0.03 0.03 0.03 0.02 0.01 0.01 0.01 0.01 0.01 0.00
MSLP
1010.54 1011.44 1012.49 1013.54 1014.42 1015.04 1015.36 1015.40 1015.24 1014.95 1014.65 1014.37 1014.14 1013.91 1013.62 1013.23 1012.71 1012.08 1011.40 1010.78 1010.32 1010.09 1010.13 1010.43 1010.91 1011.48 1012.01 1012.44 1012.73 1012.89 1012.97 1013.04 1013.16 1013.40 1013.74 1014.18 1014.64 1015.08 1015.45 1015.71 1015.87 1015.96 1016.02 1016.09 1016.19 1016.32 1016.48 1016.65 1016.80
1010.91 1011.96 1013.09 1014.12 1014.89 1015.33 1015.42 1015.21 1014.79 1014.29 1013.80 1013.40 1013.07 1012.78 1012.48 1012.10 1011.61 1011.04 1010.46 1009.96 1009.64 1009.57 1009.78 1010.24 1010.86 1011.54 1012.18 1012.68 1013.03 1013.24 1013.35 1013.45 1013.60 1013.84 1014.17 1014.56 1014.97 1015.34 1015.63 1015.82 1015.93 1016.00 1016.06 1016.15 1016.28 1016.46 1016.65 1016.83 1016.97
1011.46 1012.61 1013.75 1014.70 1015.32 1015.54 1015.38 1014.91 1014.26 1013.57 1012.93 1012.42 1012.03 1011.71 1011.41 1011.05 1010.62 1010.14 1009.66 1009.30 1009.12 1009.21 1009.57 1010.16 1010.91 1011.68 1012.39 1012.95 1013.35 1013.59 1013.74 1013.86 1014.03 1014.26 1014.57 1014.92 1015.27 1015.56 1015.77 1015.89 1015.96 1016.01 1016.08 1016.20 1016.38 1016.60 1016.83 1017.02 1017.16
1012.14 1013.33 1014.43 1015.25 1015.68 1015.68 1015.28 1014.59 1013.75 1012.90 1012.16 1011.58 1011.16 1010.84 1010.56 1010.25 1009.89 1009.50 1009.14 1008.91 1008.88 1009.10 1009.58 1010.27 1011.08 1011.91 1012.64 1013.23 1013.64 1013.90 1014.08 1014.22 1014.40 1014.64 1014.93 1015.24 1015.53 1015.76 1015.91 1015.98 1016.01 1016.06 1016.14 1016.30 1016.52 1016.78 1017.04 1017.26 1017.41
1012.90 1014.07 1015.07 1015.73 1015.97 1015.76 1015.16 1014.29 1013.31 1012.36 1011.57 1010.96 1010.54 1010.24 1009.99 1009.74 1009.47 1009.18 1008.94 1008.83 1008.91 1009.24 1009.80 1010.54 1011.38 1012.20 1012.92 1013.48 1013.88 1014.14 1014.32 1014.48 1014.68 1014.93 1015.22 1015.52 1015.77 1015.95 1016.06 1016.10 1016.12 1016.16 1016.27 1016.46 1016.72 1017.02 1017.31 1017.55 1017.70
1013.62 1014.72 1015.58 1016.07 1016.12 1015.72 1014.97 1013.99 1012.93 1011.96 1011.15 1010.56 1010.16 1009.90 1009.71 1009.52 1009.32 1009.13 1009.00 1008.99 1009.17 1009.57 1010.17 1010.92 1011.73 1012.50 1013.16 1013.67 1014.02 1014.27 1014.45 1014.64 1014.86 1015.14 1015.44 1015.74 1015.99 1016.16 1016.24 1016.27 1016.29 1016.34 1016.47 1016.68 1016.97 1017.30 1017.61 1017.85 1018.01
1014.19 1015.17 1015.87 1016.18 1016.06 1015.52 1014.67 1013.64 1012.58 1011.63 1010.87 1010.32 1009.97 1009.75 1009.60 1009.48 1009.35 1009.24 1009.19 1009.28 1009.53 1009.97 1010.58 1011.30 1012.05 1012.75 1013.33 1013.77 1014.08 1014.30 1014.49 1014.70 1014.96 1015.27 1015.60 1015.92 1016.18 1016.35 1016.44 1016.48 1016.50 1016.56 1016.70 1016.93 1017.23 1017.56 1017.88 1018.13 1018.28
1014.54 1015.36 1015.88 1016.02 1015.75 1015.12 1014.23 1013.21 1012.20 1011.32 1010.62 1010.14 1009.84 1009.66 1009.55 1009.47 1009.40 1009.35 1009.38 1009.53 1009.84 1010.31 1010.92 1011.60 1012.29 1012.91 1013.41 1013.78 1014.05 1014.26 1014.45 1014.69 1014.99 1015.35 1015.72 1016.07 1016.35 1016.54 1016.64 1016.68 1016.71 1016.78 1016.92 1017.15 1017.45 1017.77 1018.07 1018.31 1018.45
1014.64 1015.28 1015.62 1015.59 1015.21 1014.53 1013.64 1012.68 1011.75 1010.96 1010.35 1009.93 1009.67 1009.53 1009.44 1009.39 1009.35 1009.36 1009.45 1009.66 1010.01 1010.51 1011.11 1011.76 1012.39 1012.95 1013.40 1013.73 1013.97 1014.18 1014.40 1014.67 1015.01 1015.40 1015.81 1016.19 1016.49 1016.69 1016.81 1016.86 1016.89 1016.96 1017.10 1017.31 1017.59 1017.89 1018.17 1018.38 1018.50
1014.52 1014.97 1015.12 1014.95 1014.48 1013.78 1012.94 1012.05 1011.23 1010.54 1010.02 1009.66 1009.44 1009.30 1009.23 1009.18 1009.17 1009.21 1009.35 1009.61 1010.00 1010.51 1011.12 1011.75 1012.36 1012.89 1013.31 1013.64 1013.89 1014.12 1014.36 1014.67 1015.04 1015.46 1015.89 1016.28 1016.59 1016.80 1016.92 1016.98 1017.02 1017.09 1017.22 1017.41 1017.66 1017.92 1018.17 1018.35 1018.44
1014.26 1014.52 1014.51 1014.22 1013.69 1012.99 1012.21 1011.42 1010.70 1010.11 1009.66 1009.35 1009.14 1009.01 1008.93 1008.88 1008.88 1008.94 1009.11 1009.40 1009.83 1010.37 1010.99 1011.63 1012.24 1012.77 1013.20 1013.54 1013.83 1014.09 1014.37 1014.71 1015.10 1015.52 1015.95 1016.34 1016.64 1016.86 1016.99 1017.05 1017.10 1017.17 1017.29 1017.46 1017.68 1017.91 1018.12 1018.26 1018.32
1013.97 1014.06 1013.90 1013.52 1012.96 1012.28 1011.57 1010.87 1010.26 1009.75 1009.36 1009.08 1008.88 1008.73 1008.63 1008.57 1008.56 1008.64 1008.83 1009.15 1009.60 1010.16 1010.79 1011.44 1012.07 1012.62 1013.09 1013.48 1013.80 1014.11 1014.43 1014.78 1015.17 1015.59 1016.00 1016.36 1016.66 1016.87 1017.01 1017.09 1017.15 1017.23 1017.35 1017.51 1017.70 1017.90 1018.07 1018.17 1018.21
1013.74 1013.69 1013.42 1012.97 1012.41 1011.77 1011.13 1010.52 1009.99 1009.55 1009.20 1008.93 1008.72 1008.56 1008.43 1008.36 1008.34 1008.43 1008.63 1008.96 1009.41 1009.98 1010.61 1011.28 1011.92 1012.50 1013.01 1013.44 1013.82 1014.16 1014.51 1014.87 1015.25 1015.65 1016.02 1016.36 1016.64 1016.85 1017.00 1017.11 1017.21 1017.31 1017.44 1017.60 1017.77 1017.94 1018.07 1018.15 1018.16
1013.64 1013.48 1013.15 1012.68 1012.12 1011.54 1010.97 1010.44 1009.98 1009.59 1009.26 1009.00 1008.77 1008.59 1008.45 1008.36 1008.34 1008.42 1008.61 1008.93 1009.38 1009.92 1010.54 1011.19 1011.83 1012.42 1012.96 1013.43 1013.85 1014.23 1014.59 1014.96 1015.32 1015.68 1016.03 1016.34 1016.61 1016.83 1017.01 1017.16 1017.29 1017.44 1017.59 1017.75 1017.91 1018.06 1018.16 1018.22 1018.21
1013.67 1013.45 1013.08 1012.62 1012.11 1011.59 1011.09 1010.64 1010.23 1009.88 1009.56 1009.29 1009.06 1008.86 1008.71 1008.62 1008.60 1008.67 1008.85 1009.14 1009.54 1010.04 1010.60 1011.20 1011.81 1012.40 1012.94 1013.43 1013.88 1014.28 1014.65 1015.01 1015.36 1015.69 1016.01 1016.32 1016.59 1016.84 1017.05 1017.25 1017.44 1017.63 1017.81 1017.98 1018.13 1018.25 1018.33 1018.36 1018.34
1013.79 1013.54 1013.18 1012.75 1012.31 1011.87 1011.45 1011.06 1010.70 1010.37 1010.07 1009.80 1009.57 1009.37 1009.22 1009.14 1009.12 1009.19 1009.34 1009.59 1009.92 1010.33 1010.81 1011.33 1011.87 1012.41 1012.93 1013.42 1013.87 1014.29 1014.67 1015.03 1015.37 1015.69 1016.01 1016.32 1016.61 1016.90 1017.17 1017.42 1017.67 1017.89 1018.09 1018.27 1018.40 1018.50 1018.56 1018.57 1018.54
1013.91 1013.66 1013.34 1012.98 1012.63 1012.28 1011.95 1011.63 1011.32 1011.01 1010.72 1010.45 1010.23 1010.04 1009.92 1009.85 1009.85 1009.91 1010.03 1010.22 1010.46 1010.77 1011.13 1011.53 1011.98 1012.44 1012.92 1013.38 1013.83 1014.26 1014.65 1015.03 1015.38 1015.72 1016.05 1016.39 1016.72 1017.05 1017.38 1017.69 1017.97 1018.23 1018.44 1018.60 1018.72 1018.78 1018.81 1018.80 1018.77
1013.94 1013.72 1013.46 1013.20 1012.96 1012.72 1012.49 1012.24 1011.97 1011.69 1011.42 1011.17 1010.96 1010.80 1010.71 1010.67 1010.69 1010.75 1010.84 1010.96 1011.11 1011.29 1011.52 1011.79 1012.11 1012.48 1012.89 1013.32 1013.76 1014.20 1014.62 1015.03 1015.42 1015.80 1016.17 1016.55 1016.94 1017.32 1017.70 1018.05 1018.36 1018.63 1018.83 1018.97 1019.05 1019.08 1019.08 1019.05 1019.02
1013.82 1013.64 1013.48 1013.34 1013.22 1013.11 1012.98 1012.81 1012.60 1012.36 1012.11 1011.88 1011.69 1011.57 1011.52 1011.53 1011.57 1011.64 1011.70 1011.76 1011.81 1011.86 1011.94 1012.06 1012.26 1012.52 1012.86 1013.25 1013.69 1014.15 1014.61 1015.07 1015.52 1015.96 1016.41 1016.85 1017.29 1017.73 1018.14 1018.52 1018.85 1019.10 1019.28 1019.39 1019.43 1019.41 1019.37 1019.33 1019.30
1013.52 1013.41 1013.35 1013.35 1013.38 1013.41 1013.39 1013.31 1013.16 1012.96 1012.74 1012.54 1012.39 1012.31 1012.31 1012.36 1012.44 1012.52 1012.56 1012.55 1012.51 1012.44 1012.38 1012.36 1012.43 1012.59 1012.85 1013.21 1013.64 1014.13 1014.65 1015.19 1015.72 1016.25 1016.77 1017.28 1017.79 1018.27 1018.71 1019.10 1019.42 1019.65 1019.79 1019.86 1019.85 1019.81 1019.74 1019.69 1019.67
1013.07 1013.05 1013.12 1013.27 1013.45 1013.62 1013.72 1013.73 1013.65 1013.49 1013.31 1013.15 1013.04 1013.01 1013.05 1013.15 1013.27 1013.36 1013.38 1013.33 1013.20 1013.03 1012.84 1012.70 1012.64 1012.71 1012.91 1013.24 1013.68 1014.20 1014.79 1015.40 1016.03 1016.65 1017.26 1017.85 1018.41 1018.92 1019.39 1019.77 1020.07 1020.27 1020.37 1020.40 1020.36 1020.29 1020.22 1020.17 1020.16
1012.56 1012.63 1012.84 1013.14 1013.47 1013.78 1014.00 1014.10 1014.09 1013.99 1013.85 1013.73 1013.66 1013.68 1013.77 1013.92 1014.07 1014.17 1014.19 1014.10 1013.91 1013.65 1013.36 1013.11 1012.96 1012.94 1013.08 1013.39 1013.84 1014.40 1015.05 1015.75 1016.46 1017.17 1017.86 1018.52 1019.13 1019.67 1020.14 1020.51 1020.78 1020.94 1021.02 1021.02 1020.97 1020.90 1020.84 1020.80 1020.82
1012.10 1012.27 1012.60 1013.04 1013.51 1013.94 1014.27 1014.46 1014.52 1014.47 1014.38 1014.30 1014.28 1014.35 1014.49 1014.68 1014.87 1014.99 1015.00 1014.89 1014.66 1014.33 1013.97 1013.64 1013.41 1013.33 1013.43 1013.71 1014.16 1014.76 1015.46 1016.22 1017.02 1017.80 1018.56 1019.27 1019.91 1020.47 1020.93 1021.28 1021.52 1021.66 1021.71 1021.69 1021.65 1021.59 1021.56 1021.57 1021.62
1011.76 1012.02 1012.47 1013.02 1013.60 1014.13 1014.55 1014.81 1014.93 1014.94 1014.90 1014.88 1014.91 1015.03 1015.22 1015.45 1015.67 1015.82 1015.85 1015.73 1015.48 1015.12 1014.72 1014.34 1014.06 1013.93 1013.99 1014.25 1014.70 1015.31 1016.04 1016.85 1017.69 1018.53 1019.33 1020.06 1020.72 1021.27 1021.72 1022.04 1022.25 1022.37 1022.40 1022.39 1022.36 1022.35 1022.36 1022.42 1022.51
1011.60 1011.95 1012.48 1013.11 1013.76 1014.35 1014.82 1015.14 1015.31 1015.38 1015.40 1015.43 1015.52 1015.70 1015.95 1016.23 1016.49 1016.67 1016.72 1016.62 1016.37 1016.02 1015.60 1015.21 1014.91 1014.76 1014.80 1015.04 1015.48 1016.08 1016.82 1017.64 1018.49 1019.34 1020.15 1020.89 1021.53 1022.07 1022.48 1022.78 1022.96 1023.05 1023.08 1023.07 1023.07 1023.08 1023.15 1023.26 1023.40
1011.65 1012.05 1012.62 1013.29 1013.96 1014.57 1015.06 1015.40 1015.62 1015.73 1015.81 1015.92 1016.08 1016.32 1016.64 1016.98 1017.29 1017.52 1017.61 1017.55 1017.34 1017.02 1016.64 1016.26 1015.97 1015.82 1015.85 1016.08 1016.50 1017.08 1017.79 1018.58 1019.42 1020.24 1021.03 1021.74 1022.35 1022.84 1023.22 1023.47 1023.61 1023.68 1023.69 1023.69 1023.70 1023.75 1023.85 1024.01 1024.20
1011.88 1012.30 1012.87 1013.51 1014.16 1014.74 1015.21 1015.56 1015.80 1015.96 1016.11 1016.29 1016.54 1016.86 1017.25 1017.66 1018.04 1018.33 1018.48 1018.49 1018.35 1018.09 1017.77 1017.46 1017.21 1017.09 1017.13 1017.35 1017.73 1018.28 1018.94 1019.68 1020.45 1021.22 1021.94 1022.60 1023.15 1023.59 1023.91 1024.11 1024.22 1024.25 1024.24 1024.23 1024.24 1024.30 1024.43 1024.61 1024.83
1012.24 1012.64 1013.16 1013.74 1014.30 1014.81 1015.24 1015.57 1015.82 1016.03 1016.26 1016.53 1016.87 1017.29 1017.76 1018.25 1018.71 1019.07 1019.30 1019.39 1019.34 1019.19 1018.97 1018.74 1018.57 1018.50 1018.56 1018.78 1019.14 1019.62 1020.21 1020.87 1021.56 1022.24 1022.88 1023.46 1023.94 1024.31 1024.57 1024.72 1024.77 1024.77 1024.73 1024.69 1024.68 1024.74 1024.86 1025.04 1025.26
1012.66 1013.02 1013.45 1013.92 1014.37 1014.78 1015.14 1015.43 1015.70 1015.96 1016.26 1016.63 1017.08 1017.60 1018.16 1018.74 1019.27 1019.71 1020.03 1020.22 1020.28 1020.24 1020.14 1020.03 1019.95 1019.95 1020.06 1020.28 1020.61 1021.04 1021.55 1022.11 1022.69 1023.27 1023.81 1024.29 1024.69 1024.99 1025.19 1025.29 1025.30 1025.25 1025.17 1025.10 1025.06 1025.09 1025.18 1025.33 1025.52
1013.09 1013.39 1013.71 1014.05 1014.37 1014.67 1014.94 1015.21 1015.48 1015.80 1016.19 1016.65 1017.20 1017.82 1018.48 1019.13 1019.73 1020.24 1020.65 1020.93 1021.10 1021.19 1021.21 1021.23 1021.26 1021.34 1021.50 1021.72 1022.03 1022.40 1022.83 1023.28 1023.76 1024.22 1024.66 1025.05 1025.37 1025.61 1025.76 1025.81 1025.79 1025.71 1025.60 1025.49 1025.42 1025.39 1025.44 1025.54 1025.69
Thickness
5778 5780 5779 5769 5744 5722 5724 5740 5752 5757 5763 5773 5778 5775 5771 5768 5761 5762 5791 5802 5799 5794 5788 5783 5779 5776 5774 5773 5773 5772 5771 5769 5768 5767 5766 5764 5763 5761 5759 5758 5756 5755 5754 5753 5752 5750 5749 5748 5746
5776 5777 5768 5751 5725 5711 5720 5741 5749 5759 5769 5776 5777 5776 5772 5773 5782 5785 5792 5796 5796 5792 5787 5781 5777 5774 5772 5770 5769 5768 5766 5765 5763 5762 5761 5760 5759 5758 5756 5755 5753 5752 5751 5750 5749 5747 5746 5745 5743
5774 5771 5751 5733 5718 5714 5728 5748 5755 5764 5773 5774 5771 5775 5774 5775 5784 5788 5793 5795 5793 5788 5783 5779 5775 5771 5769 5767 5766 5764 5763 5761 5759 5758 5757 5756 5755 5754 5753 5751 5750 5749 5748 5747 5745 5744 5743 5742 5741
5764 5751 5737 5722 5720 5728 5740 5753 5758 5760 5767 5773 5771 5769 5777 5787 5790 5793 5796 5793 5789 5784 5779 5775 5771 5768 5765 5763 5762 5761 5759 5757 5756 5754 5753 5752 5751 5750 5749 5747 5746 5745 5744 5743 5742 5741 5740 5739 5738
5751 5734 5720 5710 5720 5733 5745 5754 5758 5755 5760 5768 5769 5766 5771 5785 5793 5795 5792 5789 5783 5779 5775 5771 5768 5765 5763 5760 5758 5757 5755 5754 5752 5751 5749 5748 5748 5746 5745 5744 5743 5742 5741 5740 5739 5738 5737 5736 5735
5729 5718 5701 5700 5716 5733 5745 5755 5756 5754 5758 5765 5766 5764 5770 5784 5787 5789 5788 5785 5781 5775 5771 5767 5765 5762 5760 5757 5755 5754 5752 5750 5748 5747 5746 5745 5744 5743 5742 5740 5739 5738 5738 5737 5736 5735 5734 5734 5733
5719 5706 5699 5706 5714 5726 5744 5753 5752 5751 5753 5761 5768 5761 5769 5777 5784 5787 5785 5781 5777 5772 5767 5764 5761 5759 5756 5754 5752 5750 5748 5746 5745 5744 5742 5741 5740 5740 5739 5737 5736 5735 5735 5734 5733 5732 5732 5731 5731
5721 5705 5702 5701 5710 5721 5740 5747 5752 5751 5753 5768 5770 5760 5763 5774 5782 5782 5780 5775 5772 5767 5763 5760 5758 5756 5753 5751 5749 5747 5745 5743 5742 5740 5739 5738 5737 5736 5735 5734 5733 5733 5732 5731 5730 5729 5729 5729 5728
5720 5693 5688 5700 5708 5721 5734 5737 5745 5755 5755 5761 5767 5770 5775 5778 5778 5776 5772 5768 5765 5762 5759 5756 5755 5753 5751 5748 5746 5744 5742 5740 5738 5737 5736 5735 5734 5733 5732 5731 5730 5730 5729 5728 5727 5727 5726 5726 5726
5705 5685 5694 5708 5716 5723 5728 5731 5737 5743 5744 5749 5758 5766 5773 5773 5771 5769 5767 5765 5762 5758 5755 5753 5752 5751 5748 5745 5743 5741 5739 5737 5735 5734 5733 5732 5731 5730 5729 5728 5727 5727 5726 5725 5725 5724 5724 5724 5724
5704 5695 5704 5712 5719 5722 5723 5728 5735 5735 5733 5744 5752 5759 5764 5765 5765 5764 5764 5764 5761 5757 5754 5751 5750 5748 5746 5743 5741 5739 5737 5735 5733 5731 5730 5729 5728 5727 5726 5725 5724 5724 5723 5723 5722 5722 5721 5721 5721
5700 5704 5708 5714 5721 5720 5721 5726 5728 5730 5739 5754 5758 5762 5761 5759 5759 5759 5759 5758 5756 5754 5751 5749 5747 5745 5743 5741 5739 5737 5735 5733 5731 5730 5728 5727 5725 5724 5723 5722 5721 5720 5720 5720 5719 5719 5718 5718 5718
5698 5702 5710 5714 5714 5715 5718 5719 5723 5727 5742 5749 5754 5755 5755 5755 5755 5756 5756 5754 5752 5749 5747 5745 5744 5742 5740 5738 5737 5735 5733 5731 5730 5728 5726 5725 5722 5721 5720 5719 5718 5717 5717 5716 5716 5716 5715 5715 5715
5699 5700 5704 5707 5710 5715 5715 5716 5716 5724 5735 5740 5743 5745 5748 5749 5749 5749 5748 5747 5746 5745 5744 5742 5740 5739 5737 5735 5733 5732 5730 5728 5727 5725 5724 5722 5720 5718 5717 5716 5716 5715 5714 5713 5713 5712 5712 5711 5711
5695 5692 5694 5701 5705 5709 5710 5701 5706 5718 5725 5729 5733 5736 5739 5741 5742 5742 5743 5743 5741 5741 5740 5738 5737 5735 5733 5731 5729 5728 5726 5725 5723 5721 5720 5719 5717 5715 5713 5713 5712 5711 5711 5710 5709 5708 5707 5707 5706
5686 5678 5674 5688 5696 5702 5697 5684 5698 5710 5714 5717 5722 5725 5728 5730 5732 5734 5736 5737 5738 5737 5736 5735 5734 5731 5728 5726 5724 5723 5721 5720 5718 5717 5715 5714 5713 5711 5710 5709 5708 5707 5707 5706 5704 5703 5702 5700 5699
5663 5658 5664 5674 5687 5691 5684 5676 5690 5700 5703 5705 5710 5713 5716 5718 5721 5724 5728 5731 5732 5732 5731 5730 5729 5726 5723 5721 5719 5717 5715 5714 5712 5711 5710 5709 5708 5706 5705 5704 5703 5702 5701 5700 5699 5697 5696 5694 5692
5654 5655 5658 5662 5676 5678 5671 5672 5682 5689 5692 5694 5698 5702 5704 5708 5711 5716 5720 5723 5724 5724 5724 5723 5722 5720 5718 5716 5713 5711 5709 5706 5705 5704 5704 5703 5702 5700 5699 5698 5697 5696 5695 5694 5693 5690 5689 5687 5686
5660 5656 5652 5662 5674 5670 5666 5667 5671 5679 5681 5683 5686 5689 5693 5697 5702 5707 5710 5714 5715 5715 5715 5714 5712 5711 5710 5709 5707 5704 5701 5699 5697 5696 5696 5696 5696 5694 5693 5691 5690 5689 5688 5687 5687 5685 5682 5679 5677
5655 5650 5651 5660 5671 5668 5661 5660 5664 5669 5671 5675 5677 5679 5683 5687 5691 5696 5700 5703 5705 5706 5705 5705 5705 5703 5703 5703 5701 5698 5694 5690 5689 5688 5687 5686 5687 5687 5685 5684 5683 5682 5681 5680 5680 5679 5675 5671 5670
5657 5652 5654 5654 5661 5661 5656 5649 5655 5659 5663 5666 5668 5670 5673 5677 5679 5683 5687 5691 5694 5695 5696 5696 5697 5697 5697 5695 5693 5690 5685 5682 5679 5678 5677 5676 5677 5677 5676 5676 5675 5674 5673 5672 5671 5671 5669 5665 5662
5652 5665 5662 5657 5647 5641 5648 5633 5644 5651 5653 5656 5658 5661 5663 5666 5669 5672 5676 5679 5682 5684 5686 5687 5689 5689 5688 5687 5686 5683 5678 5673 5669 5668 5666 5664 5665 5666 5666 5667 5666 5665 5664 5663 5662 5661 5660 5659 5655
5662 5668 5661 5655 5645 5637 5638 5631 5634 5646 5647 5648 5649 5651 5653 5656 5659 5662 5664 5667 5670 5673 5676 5678 5680 5680 5679 5679 5678 5675 5670 5664 5660 5659 5657 5654 5654 5655 5656 5656 5656 5654 5653 5652 5652 5650 5650 5649 5646
5667 5659 5650 5639 5632 5624 5633 5629 5630 5640 5645 5644 5643 5643 5644 5646 5649 5651 5653 5656 5659 5663 5665 5668 5670 5670 5670 5670 5668 5666 5661 5656 5653 5650 5647 5644 5643 5642 5643 5644 5644 5643 5642 5641 5640 5639 5637 5635 5634
5657 5640 5622 5620 5613 5618 5631 5628 5630 5641 5645 5642 5638 5636 5635 5636 5638 5640 5642 5644 5647 5650 5653 5656 5657 5657 5658 5658 5655 5654 5651 5647 5644 5640 5635 5633 5632 5630 5630 5631 5631 5630 5629 5629 5627 5626 5624 5622 5621
5649 5640 5620 5613 5611 5614 5625 5624 5629 5637 5637 5635 5631 5628 5627 5625 5626 5627 5629 5632 5634 5637 5640 5643 5644 5645 5645 5645 5642 5640 5639 5636 5632 5628 5625 5622 5620 5618 5617 5618 5617 5617 5616 5615 5614 5612 5610 5608 5607
5646 5636 5635 5621 5617 5610 5616 5622 5627 5630 5628 5625 5623 5620 5618 5616 5615 5616 5617 5618 5621 5623 5626 5629 5631 5632 5632 5631 5629 5626 5624 5622 5618 5615 5613 5610 5608 5606 5606 5605 5604 5603 5603 5602 5600 5598 5595 5594 5592
5649 5637 5623 5617 5610 5607 5614 5617 5620 5624 5623 5620 5616 5612 5609 5607 5606 5605 5606 5607 5609 5610 5612 5615 5616 5617 5616 5616 5616 5612 5610 5607 5604 5602 5600 5598 5596 5595 5594 5593 5592 5591 5589 5588 5586 5584 5582 5580 5577
5640 5634 5622 5613 5613 5606 5604 5612 5627 5625 5622 5616 5610 5605 5601 5598 5596 5595 5595 5595 5596 5598 5600 5601 5602 5602 5602 5601 5600 5598 5595 5593 5591 5589 5587 5585 5584 5583 5581 5580 5578 5577 5575 5574 5573 5570 5568 5566 5563
5642 5635 5624 5617 5612 5609 5605 5608 5624 5623 5618 5612 5604 5598 5594 5590 5587 5585 5584 5585 5586 5586 5587 5588 5588 5588 5588 5587 5586 5584 5581 5580 5578 5575 5573 5572 5571 5569 5568 5566 5564 5562 5561 5560 5558 5557 5555 5553 5550